This is the latest recevied weather packets stored in our database for station/object IV3CLI-10. If no packets are shown the sender has not sent any weather packets the latest 10 day(s).
| Time | Temp. | Humidity | Pressure | Rain* | Wind** | Luminosity | Snow |
|---|---|---|---|---|---|---|---|
| 1777812880 | 25.56° C | 68% | 1018.3 hPa | - | - | - | - |
| 1777811980 | 25° C | 78% | 1018.6 hPa | - | - | - | - |
| 1777811079 | 25° C | 73% | 1018.6 hPa | - | - | - | - |
| 1777810179 | 24.44° C | 82% | 1018.7 hPa | - | - | - | - |
| 1777809279 | 23.89° C | 96% | 1018.7 hPa | - | - | - | - |
| 1777808379 | 24.44° C | 100% | 1018.7 hPa | - | - | - | - |
| 1777807479 | 23.89° C | 100% | 1018.9 hPa | - | - | - | - |
| 1777806579 | 23.89° C | 100% | 1018.9 hPa | - | - | - | - |
| 1777805742 | 25° C | 100% | 1018.9 hPa | - | - | - | - |
| 1777804842 | 24.44° C | 100% | 1019.1 hPa | - | - | - | - |
| 1777803942 | 22.22° C | 100% | 1019.2 hPa | - | - | - | - |
| 1777803041 | 23.33° C | 100% | 1019.4 hPa | - | - | - | - |
| 1777802141 | 22.22° C | 100% | 1019.5 hPa | - | - | - | - |
| 1777801241 | 22.22° C | 100% | 1019.5 hPa | - | - | - | - |
| 1777800340 | 22.78° C | 100% | 1019.5 hPa | - | - | - | - |
| 1777799440 | 22.22° C | 100% | 1019.7 hPa | - | - | - | - |
| 1777798540 | 22.22° C | 100% | 1019.7 hPa | - | - | - | - |
| 1777797640 | 21.67° C | 100% | 1019.6 hPa | - | - | - | - |
| 1777796740 | 21.67° C | 100% | 1019.8 hPa | - | - | - | - |
| 1777795840 | 21.11° C | 100% | 1019.9 hPa | - | - | - | - |
| 1777794940 | 21.11° C | 100% | 1019.8 hPa | - | - | - | - |
| 1777794039 | 19.44° C | 100% | 1019.6 hPa | - | - | - | - |
| 1777793139 | 19.44° C | 100% | 1019.7 hPa | - | - | - | - |
| 1777792239 | 20° C | 100% | 1019.6 hPa | - | - | - | - |
| 1777791339 | 21.11° C | 100% | 1019.6 hPa | - | - | - | - |
* Rain since midnight (hover to see other rain measurements)
** Current wind speed in m/s (hover to see current wind gust speed)